When you browse on this site, cookies collect data to enhance your experience and personalize the content and advertising you see.
Visit our Privacy Policy to learn more. By continuing to use the site, you agree to this use of cookies and data.
  • In Austria
  • List of Countries
  • For 7 days
  • Water Temperature
  • Satellite Maps
  • Weather Map
  • News
  • Weather Widgets
  • user-avatar
    Login

    Hourly Weather Ransko

    Today, 16 February, Saturday

    Time Temperature Precipitation Wind Pressure Humidity
    00:00 +4°C° 0 mm 1 mps 768 mmHg 80%
    01:00 +4°C° 0 mm 1 mps 768 mmHg 78%
    02:00 +4°C° 0 mm 1 mps 767 mmHg 77%
    03:00 +4°C° 0 mm 1 mps 767 mmHg 77%
    04:00 +3°C° 0 mm 2 mps 767 mmHg 77%
    05:00 +3°C° 0 mm 2 mps 766 mmHg 77%
    06:00 +3°C° 0 mm 2 mps 766 mmHg 77%
    07:00 +2°C° 0 mm 2 mps 766 mmHg 75%
    08:00 +3°C° 0 mm 3 mps 766 mmHg 70%
    09:00 +4°C° 0 mm 3 mps 766 mmHg 64%
    10:00 +7°C° 0 mm 3 mps 765 mmHg 59%
    11:00 +8°C° 0 mm 3 mps 765 mmHg 55%
    12:00 +10°C° 0 mm 4 mps 765 mmHg 50%
    13:00 +13°C° 0 mm 3 mps 765 mmHg 45%
    14:00 +12°C° 0 mm 3 mps 764 mmHg 47%
    15:00 +12°C° 0 mm 3 mps 764 mmHg 49%
    16:00 +12°C° 0 mm 3 mps 763 mmHg 51%
    17:00 +10°C° 0 mm 3 mps 763 mmHg 56%
    18:00 +9°C° 0 mm 3 mps 763 mmHg 62%
    19:00 +8°C° 0 mm 3 mps 763 mmHg 68%
    20:00 +7°C° 0 mm 3 mps 763 mmHg 70%
    21:00 +7°C° 0 mm 3 mps 763 mmHg 72%
    22:00 +5°C° 0 mm 3 mps 763 mmHg 74%
    23:00 +5°C° 0 mm 3 mps 763 mmHg 77%

    Tomorrow, 17 February, Sunday

    Time Temperature Precipitation Wind Pressure Humidity
    00:00 +4°C° 0 mm 3 mps 764 mmHg 79%
    01:00 +4°C° 0 mm 3 mps 764 mmHg 82%
    02:00 +3°C° 0 mm 3 mps 764 mmHg 84%
    03:00 +3°C° 0 mm 3 mps 764 mmHg 86%
    04:00 +3°C° 0 mm 3 mps 763 mmHg 87%
    05:00 +3°C° 0 mm 2 mps 764 mmHg 88%
    06:00 +3°C° 0 mm 2 mps 764 mmHg 90%
    07:00 +3°C° 0 mm 2 mps 764 mmHg 91%
    08:00 +4°C° 0 mm 2 mps 764 mmHg 85%
    09:00 +5°C° 0 mm 2 mps 764 mmHg 80%
    10:00 +6°C° 0 mm 2 mps 764 mmHg 74%
    11:00 +8°C° 0 mm 2 mps 764 mmHg 69%
    12:00 +9°C° 0 mm 2 mps 764 mmHg 64%
    13:00 +10°C° 0 mm 2 mps 764 mmHg 59%
    14:00 +10°C° 0 mm 2 mps 763 mmHg 60%
    15:00 +11°C° 0 mm 1 mps 763 mmHg 61%
    16:00 +11°C° 0 mm 1 mps 763 mmHg 62%
    17:00 +10°C° 0 mm 1 mps 763 mmHg 65%
    18:00 +9°C° 0 mm 1 mps 763 mmHg 69%
    19:00 +8°C° 0 mm 1 mps 763 mmHg 73%
    20:00 +7°C° 0 mm 1 mps 763 mmHg 74%
    21:00 +7°C° 0 mm 1 mps 763 mmHg 75%
    22:00 +7°C° 0 mm 1 mps 763 mmHg 77%
    23:00 +5°C° 0 mm 2 mps 763 mmHg 77%

    Day after tomorrow, 18 February, Monday

    Time Temperature Precipitation Wind Pressure Humidity
    00:00 +5°C° 0 mm 2 mps 763 mmHg 78%
    01:00 +4°C° 0 mm 2 mps 763 mmHg 79%
    02:00 +4°C° 0 mm 2 mps 762 mmHg 78%
    03:00 +4°C° 0 mm 2 mps 762 mmHg 78%
    04:00 +3°C° 0 mm 2 mps 762 mmHg 78%
    05:00 +3°C° 0 mm 2 mps 761 mmHg 78%
    06:00 +3°C° 0 mm 2 mps 761 mmHg 79%
    07:00 +3°C° 0 mm 2 mps 761 mmHg 79%
    08:00 +4°C° 0 mm 2 mps 761 mmHg 74%
    09:00 +5°C° 0 mm 2 mps 761 mmHg 68%
    10:00 +7°C° 0 mm 2 mps 761 mmHg 63%
    11:00 +8°C° 0 mm 2 mps 761 mmHg 58%
    12:00 +9°C° 0 mm 2 mps 761 mmHg 53%
    13:00 +12°C° 0 mm 2 mps 761 mmHg 49%
    14:00 +12°C° 0 mm 2 mps 760 mmHg 50%
    15:00 +12°C° 0 mm 2 mps 760 mmHg 51%
    16:00 +12°C° 0 mm 2 mps 760 mmHg 52%
    17:00 +9°C° 0 mm 2 mps 759 mmHg 56%
    18:00 +8°C° 0 mm 2 mps 759 mmHg 61%
    19:00 +7°C° 0 mm 2 mps 759 mmHg 65%
    20:00 +6°C° 0 mm 2 mps 759 mmHg 67%
    21:00 +6°C° 0 mm 2 mps 759 mmHg 69%
    22:00 +5°C° 0 mm 2 mps 759 mmHg 71%
    23:00 +4°C° 0 mm 3 mps 759 mmHg 72%

    19 February, Tuesday

    Time Temperature Precipitation Wind Pressure Humidity
    00:00 +4°C° 0 mm 3 mps 759 mmHg 73%
    01:00 +3°C° 0 mm 3 mps 759 mmHg 73%
    02:00 +3°C° 0 mm 3 mps 758 mmHg 76%
    03:00 +3°C° 0 mm 3 mps 758 mmHg 78%
    04:00 +3°C° 0 mm 3 mps 758 mmHg 80%
    05:00 +3°C° 0 mm 3 mps 757 mmHg 80%
    06:00 +2°C° 0 mm 3 mps 757 mmHg 79%
    07:00 +2°C° 0 mm 3 mps 757 mmHg 79%
    08:00 +4°C° 0 mm 4 mps 757 mmHg 72%
    09:00 +5°C° 0 mm 4 mps 757 mmHg 66%
    10:00 +6°C° 0 mm 5 mps 757 mmHg 60%
    11:00 +8°C° 0 mm 5 mps 756 mmHg 57%
    12:00 +9°C° 0 mm 5 mps 756 mmHg 55%
    13:00 +10°C° 0 mm 6 mps 756 mmHg 53%
    14:00 +9°C° 0.1 mm 6 mps 756 mmHg 60%
    15:00 +8°C° 0.1 mm 6 mps 756 mmHg 68%
    16:00 +8°C° 0.1 mm 6 mps 756 mmHg 76%
    17:00 +7°C° 0.1 mm 5 mps 756 mmHg 78%
    18:00 +6°C° 0.1 mm 4 mps 757 mmHg 81%
    19:00 +5°C° 0.1 mm 4 mps 757 mmHg 83%
    20:00 +5°C° 0 mm 4 mps 757 mmHg 84%
    21:00 +5°C° 0 mm 4 mps 758 mmHg 84%
    22:00 +4°C° 0 mm 4 mps 758 mmHg 85%
    23:00 +4°C° 0 mm 4 mps 758 mmHg 85%

    20 February, Wednesday

    Time Temperature Precipitation Wind Pressure Humidity
    00:00 +4°C° 0 mm 4 mps 759 mmHg 86%
    01:00 +3°C° 0 mm 5 mps 759 mmHg 86%
    02:00 +3°C° 0 mm 4 mps 759 mmHg 88%
    03:00 +3°C° 0 mm 4 mps 759 mmHg 89%
    04:00 +3°C° 0 mm 4 mps 759 mmHg 91%
    05:00 +1°C° 0 mm 4 mps 759 mmHg 91%
    06:00 +1°C° 0 mm 4 mps 760 mmHg 91%
    07:00 +1°C° 0 mm 4 mps 760 mmHg 91%
    08:00 +2°C° 0 mm 5 mps 761 mmHg 87%
    09:00 +2°C° 0 mm 5 mps 761 mmHg 83%
    10:00 +3°C° 0 mm 5 mps 761 mmHg 79%
    11:00 +5°C° 0 mm 5 mps 761 mmHg 74%
    12:00 +6°C° 0 mm 5 mps 761 mmHg 70%
    13:00 +7°C° 0 mm 5 mps 762 mmHg 65%
    14:00 +7°C° 0 mm 5 mps 762 mmHg 67%
    15:00 +7°C° 0 mm 4 mps 762 mmHg 68%
    16:00 +7°C° 0 mm 4 mps 762 mmHg 69%
    17:00 +7°C° 0 mm 3 mps 762 mmHg 72%
    18:00 +7°C° 0 mm 3 mps 762 mmHg 76%
    19:00 +7°C° 0 mm 3 mps 762 mmHg 79%
    20:00 +5°C° 0 mm 3 mps 763 mmHg 82%
    21:00 +5°C° 0 mm 3 mps 763 mmHg 84%
    22:00 +4°C° 0 mm 3 mps 763 mmHg 86%
    23:00 +4°C° 0 mm 3 mps 763 mmHg 87%

    21 February, Thursday

    Time Temperature Precipitation Wind Pressure Humidity
    00:00 +4°C° 0 mm 3 mps 763 mmHg 88%
    01:00 +4°C° 0 mm 3 mps 763 mmHg 89%
    02:00 +4°C° 0.2 mm 3 mps 763 mmHg 89%
    03:00 +4°C° 0.2 mm 3 mps 763 mmHg 89%
    04:00 +4°C° 0.2 mm 3 mps 763 mmHg 89%
    05:00 +4°C° 0.2 mm 3 mps 762 mmHg 89%
    06:00 +4°C° 0.2 mm 3 mps 762 mmHg 89%
    07:00 +4°C° 0.2 mm 3 mps 762 mmHg 89%
    08:00 +5°C° 0 mm 3 mps 762 mmHg 85%
    09:00 +5°C° 0 mm 4 mps 762 mmHg 81%
    10:00 +6°C° 0 mm 4 mps 762 mmHg 77%
    11:00 +7°C° 0 mm 4 mps 762 mmHg 75%
    12:00 +7°C° 0 mm 5 mps 762 mmHg 73%
    13:00 +8°C° 0 mm 5 mps 762 mmHg 71%
    14:00 +8°C° 0.3 mm 5 mps 761 mmHg 75%
    15:00 +7°C° 0.3 mm 5 mps 761 mmHg 80%
    16:00 +7°C° 0.3 mm 5 mps 761 mmHg 84%
    17:00 +7°C° 0.3 mm 4 mps 761 mmHg 85%
    18:00 +6°C° 0.3 mm 4 mps 761 mmHg 87%
    19:00 +6°C° 0.3 mm 4 mps 761 mmHg 88%
    20:00 +6°C° 0.1 mm 4 mps 761 mmHg 89%
    21:00 +6°C° 0.1 mm 4 mps 761 mmHg 90%
    22:00 +6°C° 0.1 mm 4 mps 761 mmHg 91%
    23:00 +6°C° 0.8 mm 4 mps 761 mmHg 91%
    Show more